Regional Weather Roundup
Issued by NWS

Home | Current Version | Previous Version | Text Only | Print | Product List | Glossary On
Versions: 1 2 3 4 5 6 7 8 9 10 11 12 13 14 15 16 17 18 19 20 21 22 23 24 25 26 27 28 29 30 31 32 33 34 35 36 37 38 39 40 41 42 43 44 45 46 47 48 49 50
000
ASUS45 KABQ 260610
RWRNM
WEATHER ROUNDUP FOR NEW MEXICO
NATIONAL WEATHER SERVICE ALBUQUERQUE NM
1100 PM MST SUN JAN 25 2015

NOTE: "FAIR" MEANS FEW OR NO CLOUDS BELOW 12,000 FEET AGL WITH NO
       SIGNIFICANT WEATHER OR OBSTRUCTIONS TO VISION.

      THIS PRODUCT IS RELEASED AS TWO VERSIONS.  ONE VERSION NEAR
      THE TOP OF THE HOUR CONTAINING PRELIMINARY DATA FROM ALBUQUERQUE
      AND OTHER STATIONS.  A FINAL VERSION WITH ADDITIONAL DATA IS
      ISSUED ABOUT 10 MINUTES AFTER THE HOUR.

NMZ501-503-504-510>518-260700-
NORTHWEST PLATEAU/NORTHCENTRAL MOUNTAINS

CITY           SKY/WX    TMP DP  RH WIND       PRES   REMARKS
FARMINGTON     CLEAR     31  21  66 E9        30.32R WCI  23
6HR MIN TEMP:  28; 6HR MAX TEMP:  47;

LOS ALAMOS     PTCLDY    44  19  38 NW7       30.35R
SANTA FE       PTCLDY    36  23  59 CALM      30.32R
6HR MIN TEMP:  29; 6HR MAX TEMP:  47;

TAOS           PTCLDY    28  21  74 NE5       30.36R WCI  23
ANGEL FIRE     FAIR      17  15  90 CALM      30.38R

$$
NMZ402-403-502-505>509-260700-
WESTCENTRAL MOUNTAINS/SOUTHWEST MOUNTAINS

CITY           SKY/WX    TMP DP  RH WIND       PRES   REMARKS
GALLUP         CLEAR     28  23  81 NE5       30.36R WCI  23
6HR MIN TEMP:  24; 6HR MAX TEMP:  54;

GRANTS         CLEAR     27  23  85 NW5       30.38R WCI  21
SILVER CITY    PTCLDY    32  23  69 N9        30.32S WCI  24

$$
NMZ407-409-411-412-260700-
SOUTHERN DESERTS

CITY           SKY/WX    TMP DP  RH WIND       PRES   REMARKS
LORDSBURG      FAIR      41  27  56 S9        30.28S
DEMING         MOCLDY    38  27  64 N5        30.29R WCI  34
6HR MIN TEMP:  37; 6HR MAX TEMP:  55;

LAS CRUCES     MOCLDY    42  28  57 NE6       30.30S
HOLLOMAN AFB   PTCLDY    34  28  77 NE5       30.30S WCI  30
ALAMOGORDO     PTCLDY    39  25  56 NE9       30.31F WCI  33
T OR C         PTCLDY    36  22  56 NW6       30.30F WCI  31
6HR MIN TEMP:  35; 6HR MAX TEMP:  58;


$$
NMZ519>523-260700-
CENTRAL VALLEYS/CENTRAL HIGHLANDS

CITY           SKY/WX    TMP DP  RH WIND       PRES   REMARKS
ALBUQUERQUE    PTCLDY    39  24  55 CALM      30.35R
6HR MIN TEMP:  37; 6HR MAX TEMP:  54;

DOUBLE EAGLE   PTCLDY    31  22  71 W7        30.35R WCI  24
MORIARTY ARPT  FAIR      26  22  88 CALM      30.35R
6HR MIN TEMP:  24; 6HR MAX TEMP:  48;

CLINES CORNERS CLEAR     32  20  61 W6        30.33R WCI  26
6HR MIN TEMP:  30; 6HR MAX TEMP:  45;

BELEN          FAIR      31  26  78 N5        30.35R WCI  27
6HR MIN TEMP:  30; 6HR MAX TEMP:  54;

SOCORRO        FAIR      34  25  71 S6        30.32S WCI  28
6HR MIN TEMP:  33; 6HR MAX TEMP:  55;


$$
NMZ524>526-539-540-260700-
SOUTHCENTRAL MOUNTAINS

CITY           SKY/WX    TMP DP  RH WIND       PRES   REMARKS
RUIDOSO        PTCLDY    36  18  48 W8        30.35S WCI  29

$$
NMZ527>531-260700-
NORTHEAST HIGHLANDS/NORTHEAST PLAINS

CITY           SKY/WX    TMP DP  RH WIND       PRES   REMARKS
LAS VEGAS      CLEAR     32  24  72 CALM      30.32R
6HR MIN TEMP:  26; 6HR MAX TEMP:  39;

RATON          PTCLDY    27  22  81 NE6       30.30R WCI  20
6HR MIN TEMP:  27; 6HR MAX TEMP:  39;

CLAYTON        PTCLDY    41  25  53 W14       30.24R
6HR MIN TEMP:  37; 6HR MAX TEMP:  42;


$$
NMZ532>537-260700-
EASTCENTRAL PLAINS

CITY           SKY/WX    TMP DP  RH WIND       PRES   REMARKS
TUCUMCARI      CLEAR     33  29  85 W9        30.27F WCI  25
6HR MIN TEMP:  32; 6HR MAX TEMP:  45;

CANNON AFB     PTCLDY    38  28  69 NW10      30.30R WCI  30
6HR MIN TEMP:  38; 6HR MAX TEMP:  47;

CLOVIS AIRPORT CLEAR     36  28  75 W13       30.29S WCI  27

$$
NMZ028-029-538-260700-
SOUTHEAST PLAINS

CITY           SKY/WX    TMP DP  RH WIND       PRES   REMARKS
ROSWELL        CLEAR     36  28  73 NW3       30.30R
6HR MIN TEMP:  33; 6HR MAX TEMP:  54;

ARTESIA        PTCLDY    36  30  80 W8        30.31S WCI  29
CARLSBAD       PTCLDY    39  29  67 SW9       30.29S WCI  33
6HR MIN TEMP:  36; 6HR MAX TEMP:  56;

HOBBS          CLEAR     36  27  69 W9        30.31S WCI  29


$$


USA.gov is the U.S. government's official web portal to all federal, state and local government web resources and services.